Temp
-12 -12 -13 -13 -13 -13 -13 -12 -13 -12 -13 -13 -13 -13 -13 -13 -13 -13 -12 -12 -12 -12 -12 -12 -12 -12 -12 -12 -12 -12 -12 -12 -12 -12 -12 -13 -13 -13
-12 -12 -12 -13 -13 -13 -13 -12 -12 -13 -12 -13 -14 -13 -12 -12 -13 -12 -12 -13 -12 -12 -12 -13 -13 -13 -13 -13 -13 -12 -12 -12 -12 -12 -12 -13 -13 -13
-11 -12 -12 -12 -12 -12 -13 -12 -12 -13 -12 -11 -13 -13 -12 -12 -12 -12 -12 -12 -13 -13 -12 -13 -13 -13 -14 -13 -14 -13 -12 -12 -12 -12 -13 -13 -13 -13
-12 -12 -11 -12 -12 -12 -12 -12 -12 -12 -12 -12 -12 -12 -12 -12 -12 -12 -12 -12 -12 -12 -13 -12 -13 -13 -14 -13 -14 -13 -13 -13 -12 -13 -13 -13 -13 -13
-12 -12 -12 -12 -12 -11 -12 -12 -12 -12 -12 -12 -12 -12 -12 -12 -12 -12 -12 -12 -12 -13 -12 -13 -12 -13 -13 -13 -14 -13 -13 -13 -13 -13 -13 -13 -13 -13
-13 -12 -12 -12 -12 -12 -12 -13 -13 -13 -13 -13 -12 -12 -12 -12 -12 -12 -12 -12 -12 -12 -13 -13 -13 -13 -13 -14 -14 -13 -13 -13 -13 -13 -13 -13 -13 -14
-13 -12 -12 -12 -13 -13 -12 -12 -13 -13 -13 -12 -13 -13 -13 -12 -12 -11 -11 -12 -12 -12 -12 -13 -13 -13 -13 -13 -14 -14 -13 -13 -13 -13 -14 -13 -14 -14
-12 -12 -12 -13 -12 -12 -12 -13 -13 -13 -13 -13 -13 -13 -13 -12 -12 -11 -12 -12 -12 -12 -13 -13 -13 -13 -14 -14 -14 -14 -14 -14 -14 -14 -14 -14 -14 -14
-13 -12 -12 -12 -12 -12 -12 -13 -13 -13 -14 -14 -13 -13 -13 -12 -12 -12 -12 -12 -12 -13 -13 -13 -13 -13 -14 -14 -14 -14 -14 -14 -14 -14 -14 -14 -14 -15
-13 -12 -12 -12 -12 -13 -13 -13 -13 -13 -13 -14 -13 -13 -13 -13 -12 -12 -12 -12 -12 -12 -12 -13 -13 -13 -14 -14 -14 -14 -14 -15 -15 -15 -15 -15 -15 -15
-13 -12 -12 -12 -13 -13 -13 -13 -13 -13 -13 -13 -13 -13 -13 -12 -12 -12 -12 -13 -13 -12 -13 -13 -13 -13 -14 -14 -14 -14 -14 -14 -15 -15 -15 -15 -15 -16
-12 -12 -12 -12 -12 -13 -13 -13 -13 -14 -13 -13 -13 -13 -13 -12 -12 -12 -12 -12 -13 -13 -13 -13 -13 -14 -14 -14 -14 -14 -14 -14 -14 -15 -15 -16 -16 -16
-12 -12 -12 -12 -12 -12 -13 -13 -13 -13 -13 -13 -12 -12 -13 -13 -12 -12 -13 -13 -13 -13 -13 -13 -13 -14 -14 -14 -14 -14 -15 -15 -15 -15 -15 -16 -16 -16
-12 -13 -12 -12 -12 -13 -13 -13 -13 -13 -13 -13 -12 -12 -13 -13 -13 -13 -13 -13 -13 -13 -13 -13 -14 -14 -14 -14 -14 -14 -15 -15 -15 -16 -16 -16 -16 -17
-12 -12 -13 -13 -13 -12 -13 -13 -13 -14 -13 -13 -12 -12 -12 -13 -13 -13 -13 -13 -12 -13 -13 -14 -13 -13 -13 -14 -14 -14 -15 -15 -16 -16 -16 -16 -16 -17
-12 -12 -13 -13 -13 -13 -13 -13 -14 -14 -13 -13 -12 -12 -12 -13 -13 -13 -13 -13 -14 -13 -13 -14 -13 -14 -14 -14 -14 -15 -15 -16 -16 -16 -17 -17 -17 -17
-12 -13 -13 -13 -13 -13 -13 -13 -14 -14 -14 -13 -13 -12 -12 -13 -13 -12 -12 -13 -13 -13 -13 -14 -14 -14 -14 -14 -15 -15 -16 -16 -17 -17 -17 -17 -18 -18
-13 -12 -12 -13 -13 -13 -13 -14 -14 -14 -14 -14 -13 -12 -12 -12 -13 -12 -14 -13 -13 -13 -14 -14 -14 -14 -14 -15 -15 -16 -16 -16 -17 -17 -17 -18 -18 -19
-13 -13 -13 -13 -13 -13 -14 -14 -14 -14 -14 -14 -13 -13 -12 -12 -13 -14 -13 -13 -13 -14 -14 -14 -14 -15 -15 -15 -16 -16 -17 -17 -17 -17 -18 -18 -18 -19
-14 -13 -14 -13 -13 -14 -14 -14 -14 -14 -14 -14 -13 -13 -13 -12 -13 -13 -13 -14 -13 -14 -15 -14 -15 -15 -15 -16 -17 -17 -17 -17 -17 -18 -18 -19 -19 -19
-12 -13 -14 -14 -14 -14 -14 -14 -14 -13 -13 -13 -13 -13 -13 -13 -13 -14 -14 -14 -14 -14 -15 -15 -15 -16 -16 -17 -17 -17 -17 -17 -18 -18 -19 -19 -20 -21
-14 -13 -14 -13 -14 -14 -14 -14 -14 -14 -14 -14 -14 -14 -14 -13 -13 -14 -14 -15 -15 -15 -15 -16 -16 -16 -17 -17 -17 -17 -17 -18 -18 -19 -19 -20 -20 -21
-14 -14 -14 -13 -13 -14 -14 -13 -14 -14 -14 -14 -14 -13 -13 -14 -15 -15 -15 -16 -15 -15 -15 -15 -16 -16 -17 -17 -17 -18 -18 -18 -19 -19 -20 -20 -21 -22
Height
5834 5835 5834 5836 5836 5835 5833 5833 5833 5832 5831 5829 5827 5825 5822 5822 5820 5818 5816 5812 5810 5809 5808 5806 5803 5801 5799 5796 5793 5789 5785 5781 5777 5772 5767 5763 5756 5749
5828 5828 5830 5829 5829 5829 5828 5827 5827 5824 5823 5822 5820 5816 5814 5814 5813 5810 5810 5804 5803 5801 5798 5797 5794 5791 5790 5788 5785 5781 5778 5774 5769 5765 5759 5753 5748 5740
5820 5822 5823 5822 5822 5820 5820 5820 5820 5818 5813 5811 5812 5809 5805 5804 5805 5801 5801 5797 5794 5792 5790 5787 5784 5782 5779 5776 5775 5773 5770 5767 5762 5757 5751 5745 5738 5730
5813 5814 5815 5814 5815 5813 5812 5812 5811 5810 5806 5804 5803 5801 5798 5796 5795 5791 5788 5786 5784 5781 5780 5777 5774 5771 5770 5767 5766 5764 5762 5759 5753 5747 5741 5735 5728 5720
5804 5805 5807 5807 5808 5808 5805 5805 5804 5802 5800 5797 5794 5792 5788 5786 5783 5781 5777 5775 5773 5771 5768 5767 5765 5762 5762 5759 5757 5755 5753 5750 5745 5738 5733 5726 5720 5711
5793 5795 5796 5798 5800 5800 5799 5799 5796 5794 5793 5790 5786 5783 5779 5777 5774 5771 5767 5764 5761 5761 5760 5759 5756 5754 5753 5750 5748 5747 5744 5739 5735 5730 5724 5717 5710 5702
5782 5784 5786 5787 5789 5790 5790 5790 5788 5786 5785 5780 5777 5774 5770 5766 5762 5759 5755 5754 5753 5751 5750 5749 5747 5746 5743 5742 5740 5738 5735 5731 5726 5721 5715 5709 5701 5692
5774 5775 5777 5777 5779 5780 5781 5781 5780 5778 5774 5771 5768 5766 5761 5757 5752 5745 5745 5745 5744 5742 5741 5738 5738 5738 5735 5733 5731 5729 5726 5722 5718 5712 5706 5699 5691 5682
5764 5766 5767 5768 5770 5771 5771 5771 5771 5770 5766 5762 5760 5757 5751 5748 5743 5737 5737 5736 5735 5733 5730 5728 5728 5728 5726 5724 5722 5720 5716 5713 5707 5701 5696 5688 5680 5671
5755 5757 5759 5760 5761 5760 5760 5759 5760 5759 5757 5753 5750 5747 5744 5739 5734 5731 5730 5726 5725 5721 5720 5718 5719 5719 5717 5715 5713 5710 5706 5702 5696 5691 5686 5679 5670 5661
5745 5748 5749 5750 5751 5749 5747 5746 5746 5747 5745 5742 5740 5736 5734 5730 5727 5725 5721 5717 5714 5712 5709 5710 5710 5709 5707 5705 5702 5698 5693 5690 5686 5679 5674 5667 5659 5651
5733 5737 5738 5738 5738 5737 5735 5734 5734 5736 5733 5731 5729 5726 5725 5723 5718 5714 5711 5707 5706 5703 5703 5702 5700 5699 5697 5695 5691 5687 5682 5678 5673 5667 5662 5654 5647 5639
5718 5722 5725 5724 5724 5723 5720 5721 5723 5722 5722 5719 5718 5716 5714 5712 5709 5705 5702 5700 5698 5697 5693 5693 5689 5686 5685 5682 5679 5674 5671 5668 5662 5656 5650 5643 5634 5626
5703 5707 5710 5710 5709 5707 5708 5707 5709 5711 5709 5709 5706 5705 5704 5701 5698 5696 5693 5692 5689 5685 5683 5682 5679 5676 5674 5670 5667 5663 5661 5656 5650 5644 5637 5632 5625 5616
5688 5691 5691 5693 5694 5693 5696 5696 5697 5697 5697 5696 5694 5693 5692 5690 5687 5686 5684 5680 5679 5677 5674 5671 5668 5666 5664 5659 5656 5652 5648 5643 5636 5631 5624 5617 5609 5600
5672 5674 5675 5675 5679 5679 5680 5683 5684 5684 5684 5683 5682 5681 5678 5676 5674 5673 5671 5669 5667 5664 5661 5660 5657 5654 5652 5648 5643 5639 5634 5629 5623 5617 5611 5603 5596 5591
5653 5654 5657 5658 5662 5666 5668 5668 5670 5670 5669 5667 5667 5667 5664 5663 5661 5652 5657 5656 5654 5652 5650 5648 5646 5642 5638 5635 5630 5626 5621 5616 5610 5605 5599 5593 5585 5580
5632 5634 5638 5642 5646 5649 5651 5653 5654 5655 5654 5653 5652 5651 5650 5650 5648 5645 5645 5640 5640 5640 5637 5634 5632 5628 5625 5621 5617 5614 5609 5604 5598 5593 5586 5580 5573 5565
5608 5612 5619 5623 5629 5632 5634 5636 5637 5639 5638 5637 5637 5637 5636 5636 5632 5632 5631 5629 5628 5627 5624 5621 5618 5615 5612 5608 5605 5600 5596 5591 5586 5581 5572 5566 5560 5554
5581 5585 5600 5605 5610 5614 5615 5617 5618 5620 5622 5621 5621 5618 5618 5620 5619 5618 5617 5615 5615 5613 5611 5608 5604 5601 5598 5595 5591 5586 5583 5577 5572 5565 5558 5551 5546 5540
5528 5558 5577 5583 5588 5592 5594 5598 5601 5603 5605 5607 5606 5607 5608 5607 5605 5602 5602 5600 5599 5598 5596 5593 5589 5586 5584 5580 5576 5572 5568 5564 5558 5552 5545 5539 5534 5528
5553 5558 5558 5563 5568 5573 5578 5582 5584 5585 5588 5589 5589 5590 5589 5589 5588 5587 5587 5585 5584 5582 5580 5577 5574 5573 5569 5566 5563 5559 5555 5550 5545 5539 5533 5526 5521 5515
5535 5538 5541 5545 5550 5556 5561 5565 5568 5569 5572 5573 5573 5569 5571 5572 5571 5570 5570 5569 5567 5566 5565 5563 5560 5559 5556 5553 5551 5546 5541 5537 5530 5524 5518 5512 5507 5502
Wind_Speed
28 28 32 30 30 31 31 28 30 32 30 32 33 34 35 36 35 34 34 36 35 35 36 37 36 38 38 35 34 40 38 38 42 42 42 44 48 51
26 29 31 34 34 34 34 32 32 39 36 36 39 39 39 37 37 38 35 37 39 38 40 41 42 39 40 35 34 40 39 39 40 41 41 45 50 52
29 31 31 34 36 38 37 34 33 37 40 37 38 41 40 39 37 41 40 43 42 40 38 42 44 46 44 42 31 37 39 40 39 41 44 46 49 53
32 34 33 34 35 37 37 37 35 37 42 42 42 45 47 47 47 47 49 45 45 51 49 48 51 53 43 40 34 34 40 39 42 43 43 45 48 50
37 36 34 35 34 38 40 41 38 40 42 44 46 48 46 41 43 40 41 43 46 47 49 54 57 56 41 38 35 34 38 41 42 40 42 45 49 52
38 37 38 37 34 35 38 40 41 43 44 48 48 49 49 45 48 42 39 42 46 50 51 54 54 50 39 35 34 36 38 41 40 41 44 48 51 54
38 39 40 41 39 38 40 42 45 49 49 48 49 51 54 53 55 49 45 42 50 53 50 58 57 41 37 34 35 37 40 41 41 43 46 49 53 56
40 40 41 45 45 42 43 45 46 48 52 51 54 56 55 55 56 49 45 40 45 49 56 54 53 43 36 35 39 42 43 42 43 44 47 52 56 55
49 44 43 46 48 47 48 49 46 46 51 54 56 57 54 56 46 29 40 47 50 54 49 52 51 43 37 38 41 44 43 42 42 43 50 56 57 55
55 51 48 52 53 56 55 56 52 51 51 57 58 57 54 55 43 41 45 45 47 46 45 40 41 39 38 40 43 47 47 45 47 49 54 58 58 58
57 55 53 56 57 59 61 59 59 55 55 58 59 56 51 47 42 44 44 46 45 47 44 42 41 43 44 44 48 53 51 51 51 53 53 57 57 59
56 56 57 59 61 60 62 63 61 58 56 57 56 53 47 44 39 37 38 39 44 40 34 35 41 43 41 44 49 52 55 51 55 50 52 54 57 59
62 63 60 63 63 58 63 65 60 58 54 56 54 53 49 47 42 40 40 40 35 42 38 38 45 40 33 36 48 51 48 50 50 50 54 55 55 58
67 64 63 60 60 59 60 61 58 54 53 55 53 52 53 50 46 45 44 39 39 44 42 40 52 42 40 42 48 43 48 51 48 51 54 55 58 60
71 70 68 68 67 63 61 60 56 53 55 55 53 54 55 54 51 49 49 45 40 46 43 42 39 40 45 39 41 45 49 48 51 52 54 56 61 63
76 74 72 74 67 65 63 60 57 55 54 56 54 55 54 55 53 51 52 47 46 41 47 42 41 44 43 41 45 46 48 50 53 54 55 56 60 63
79 79 79 79 71 67 65 64 57 53 54 54 53 55 54 55 54 53 53 49 49 46 45 47 47 47 44 46 48 47 51 53 53 55 57 58 60 64
87 86 83 80 71 68 69 68 63 57 54 51 52 56 56 54 54 42 54 51 49 49 48 48 47 48 49 50 50 51 54 56 55 56 57 58 60 62
91 87 81 79 73 69 68 72 69 63 54 51 52 55 58 57 53 51 56 58 54 52 52 52 51 51 52 53 54 54 57 58 58 58 58 60 61 64
89 100 83 82 79 73 74 76 75 69 60 54 54 65 50 47 54 55 57 58 57 55 55 54 54 54 55 54 56 56 58 58 58 60 62 60 62 65
56 85 75 75 78 79 84 73 69 67 60 57 52 58 59 52 58 55 56 60 61 58 58 57 58 59 57 54 55 58 56 58 59 61 63 62 63 61
52 56 54 53 58 61 61 59 59 59 61 58 58 64 60 63 65 61 62 64 63 61 63 62 65 59 57 55 55 56 60 58 60 62 64 63 62 61
53 57 56 55 56 55 56 61 66 63 63 64 58 55 53 55 49 55 62 65 67 68 66 64 61 57 59 53 53 59 61 58 63 64 63 63 60 58
Wind_Direction
271 273 278 279 280 281 283 290 291 291 296 300 303 299 294 293 294 296 294 298 288 286 288 293 299 300 300 297 295 300 299 302 307 307 303 308 311 317
265 271 274 279 279 279 282 287 290 293 301 296 296 299 298 297 297 292 293 291 289 291 285 286 290 292 293 291 284 298 299 304 306 304 305 308 314 317
263 268 272 275 277 277 278 283 291 292 299 305 297 299 304 309 303 296 296 291 289 286 285 292 295 286 282 287 281 293 301 303 304 306 307 315 316 319
265 268 271 273 276 279 284 287 291 294 300 304 305 305 305 303 305 313 307 302 299 286 284 286 290 286 287 293 281 291 295 301 305 303 312 314 315 319
269 271 273 274 279 283 287 288 292 296 301 302 305 308 311 307 307 302 306 296 296 291 282 278 295 287 289 293 290 289 300 301 303 309 311 314 318 319
276 278 282 285 282 285 290 290 293 295 298 299 301 306 309 305 308 296 313 304 296 290 292 276 295 294 288 291 289 293 297 301 305 311 313 316 318 318
276 278 283 286 286 290 293 292 290 296 295 294 304 307 306 303 306 291 299 306 293 278 286 284 286 286 286 288 289 292 298 302 305 310 315 316 318 321
274 278 284 286 288 291 287 286 293 294 297 300 303 307 304 303 309 297 293 293 296 290 288 282 285 282 286 287 289 294 299 304 306 311 315 315 317 320
270 273 283 286 286 288 288 287 290 288 292 295 300 305 300 299 298 294 292 288 289 286 282 280 275 280 281 285 291 293 295 299 303 310 315 316 314 317
264 268 281 281 280 280 280 283 288 290 290 291 297 301 297 299 290 289 292 291 291 287 286 277 271 289 285 288 293 294 293 294 295 305 311 314 313 315
263 266 277 277 276 277 275 280 287 289 287 289 295 299 294 295 292 293 295 292 290 289 278 271 278 289 293 288 294 297 290 292 301 309 311 313 314 316
268 265 269 274 276 278 276 275 279 285 283 288 297 293 288 289 293 295 298 291 289 287 283 283 287 288 293 296 299 294 295 294 299 308 310 312 314 315
261 264 270 273 272 274 269 268 273 277 283 288 294 290 285 287 290 293 292 292 282 287 285 299 296 285 299 301 296 292 290 297 303 308 308 310 313 316
264 263 265 268 268 269 270 268 271 275 279 285 289 288 285 282 286 290 291 296 281 288 281 295 296 286 294 298 294 291 291 295 300 303 307 310 314 317
260 263 265 266 267 268 272 266 270 274 278 281 286 285 283 281 282 283 287 279 284 293 284 291 298 287 295 291 294 295 292 295 301 301 306 310 313 314
259 262 263 266 265 266 269 271 270 274 274 278 282 281 281 280 279 279 286 279 284 286 271 289 288 291 292 290 295 294 291 292 298 300 303 308 313 316
256 260 261 262 265 265 263 266 269 269 269 273 276 276 276 277 278 273 284 275 281 286 288 286 286 290 289 290 291 292 291 294 298 299 303 310 315 318
258 259 258 258 262 263 263 263 264 273 266 269 270 271 272 272 273 277 278 277 280 280 282 284 285 289 288 288 290 292 293 297 298 300 302 309 315 315
252 255 254 255 259 259 261 263 263 267 266 268 267 269 269 270 263 265 272 275 277 275 277 282 285 287 287 289 291 293 295 298 299 300 303 307 310 314
250 252 249 253 256 257 259 259 263 262 260 262 262 269 269 262 263 272 270 273 275 273 274 278 282 284 285 289 292 292 298 298 298 301 300 303 308 312
231 242 242 243 245 249 254 261 261 259 256 260 263 263 261 259 262 269 271 270 272 270 272 275 277 281 282 286 291 295 296 294 295 299 302 303 308 310
230 244 251 253 252 251 252 255 256 260 257 257 256 258 256 262 262 266 267 268 267 268 270 275 278 281 281 288 290 295 293 293 299 304 305 305 307 309
242 236 240 249 246 245 253 253 261 256 262 266 256 250 251 257 259 265 267 266 268 269 273 279 281 277 284 285 292 291 292 294 301 302 303 303 305 307